This is the latest recevied weather packets stored in our database for station/object KJ7HSW. If no packets are shown the sender has not sent any weather packets the latest 1 day(s).
| Time | Temp. | Humidity | Pressure | Rain* | Wind** | Luminosity | Snow |
|---|---|---|---|---|---|---|---|
| 1778016155 | 21.67° C | 61% | 1014.3 hPa | 0 mm | 1.34 m/s, 268° | 778 W/m² | - |
| 1778015852 | 21.67° C | 62% | 1014.1 hPa | 0 mm | 2.24 m/s, 267° | 786 W/m² | - |
| 1778015550 | 21.67° C | 61% | 1014.3 hPa | 0 mm | 0.89 m/s, 95° | 791 W/m² | - |
| 1778015246 | 21.11° C | 62% | 1014.3 hPa | 0 mm | 1.34 m/s, 321° | 793 W/m² | - |
| 1778014943 | 21.67° C | 63% | 1014.3 hPa | 0 mm | 1.79 m/s, 200° | 792 W/m² | - |
| 1778014640 | 21.11° C | 62% | 1014.4 hPa | 0 mm | 0 m/s | 794 W/m² | - |
| 1778014338 | 21.11° C | 63% | 1014.1 hPa | 0 mm | 1.79 m/s, 176° | 792 W/m² | - |
| 1778014034 | 21.11° C | 62% | 1014.2 hPa | 0 mm | 2.24 m/s, 241° | 797 W/m² | - |
| 1778013733 | 21.11° C | 64% | 1014.4 hPa | 0 mm | 1.79 m/s, 331° | 810 W/m² | - |
| 1778013429 | 20.56° C | 64% | 1014.4 hPa | 0 mm | 1.79 m/s, 241° | 814 W/m² | - |
| 1778013127 | 20.56° C | 63% | 1014.4 hPa | 0 mm | 0.89 m/s, 242° | 821 W/m² | - |
| 1778012822 | 20.56° C | 62% | 1014.5 hPa | 0 mm | 1.34 m/s, 291° | 825 W/m² | - |
| 1778012518 | 21.11° C | 62% | 1014.3 hPa | 0 mm | 1.34 m/s, 30° | 825 W/m² | - |
| 1778012215 | 21.11° C | 63% | 1014.5 hPa | 0 mm | 0.89 m/s, 205° | 830 W/m² | - |
| 1778011913 | 20.56° C | 63% | 1014.4 hPa | 0 mm | 1.34 m/s, 225° | 832 W/m² | - |
| 1778011611 | 20.56° C | 63% | 1014.5 hPa | 0 mm | 0.45 m/s, 185° | 832 W/m² | - |
| 1778011307 | 21.11° C | 61% | 1014.5 hPa | 0 mm | 2.68 m/s, 267° | 835 W/m² | - |
| 1778011003 | 21.11° C | 62% | 1014.5 hPa | 0 mm | 1.79 m/s, 253° | 836 W/m² | - |
| 1778010701 | 21.11° C | 62% | 1014.4 hPa | 0 mm | 1.79 m/s, 334° | 838 W/m² | - |
| 1778010398 | 21.11° C | 62% | 1014.5 hPa | 0 mm | 2.24 m/s, 265° | 837 W/m² | - |
| 1778010094 | 20.56° C | 62% | 1014.6 hPa | 0 mm | 1.79 m/s, 231° | 836 W/m² | - |
| 1778009790 | 20.56° C | 63% | 1014.6 hPa | 0 mm | 2.68 m/s, 240° | 836 W/m² | - |
| 1778009487 | 20.56° C | 63% | 1014.5 hPa | 0 mm | 0.89 m/s, 141° | 833 W/m² | - |
| 1778009186 | 20.56° C | 63% | 1014.6 hPa | 0 mm | 1.34 m/s, 107° | 827 W/m² | - |
| 1778008883 | 21.11° C | 62% | 1014.5 hPa | 0 mm | 1.79 m/s, 200° | 826 W/m² | - |
* Rain latest hour (hover to see other rain measurements)
** Current wind speed in m/s (hover to see current wind gust speed)